TimeCST,TemperatureF,Dew PointF,Humidity,Sea Level PressureIn,VisibilityMPH,Wind Direction,Wind SpeedMPH,Gust SpeedMPH,PrecipitationIn,Events,Conditions,WindDirDegrees,DateUTC
12:53 AM,30.9,26.1,82,30.23,10.0,NE,4.6,-,N/A,,Clear,40,2013-11-20 06:53:00
1:53 AM,32.0,27.0,82,30.24,10.0,NNE,3.5,-,N/A,,Clear,30,2013-11-20 07:53:00
2:53 AM,30.0,26.1,85,30.24,10.0,ENE,3.5,-,N/A,,Clear,60,2013-11-20 08:53:00
3:53 AM,30.9,26.1,82,30.25,10.0,NE,3.5,-,N/A,,Clear,40,2013-11-20 09:53:00
4:53 AM,30.9,26.1,82,30.25,10.0,ENE,5.8,-,N/A,,Clear,70,2013-11-20 10:53:00
5:53 AM,30.9,26.1,82,30.26,10.0,Calm,Calm,-,N/A,,Clear,0,2013-11-20 11:53:00
6:53 AM,30.9,27.0,85,30.27,10.0,Calm,Calm,-,N/A,,Clear,0,2013-11-20 12:53:00
7:53 AM,34.0,28.9,82,30.28,10.0,East,3.5,-,N/A,,Clear,80,2013-11-20 13:53:00
8:53 AM,39.9,30.9,70,30.27,10.0,East,5.8,-,N/A,,Clear,100,2013-11-20 14:53:00
9:53 AM,46.9,30.9,54,30.28,10.0,South,6.9,-,N/A,,Clear,170,2013-11-20 15:53:00
10:53 AM,54.0,30.0,40,30.25,10.0,South,8.1,-,N/A,,Clear,180,2013-11-20 16:53:00
11:53 AM,57.0,28.9,34,30.22,10.0,South,9.2,-,N/A,,Clear,170,2013-11-20 17:53:00
12:53 PM,59.0,28.9,32,30.21,10.0,South,9.2,-,N/A,,Clear,190,2013-11-20 18:53:00
1:53 PM,59.0,30.0,33,30.17,10.0,South,8.1,-,N/A,,Clear,180,2013-11-20 19:53:00
2:53 PM,57.9,30.0,35,30.19,10.0,South,6.9,-,N/A,,Clear,190,2013-11-20 20:53:00
3:53 PM,55.0,33.1,43,30.17,10.0,SE,5.8,-,N/A,,Clear,130,2013-11-20 21:53:00
4:53 PM,48.9,30.9,50,30.19,10.0,East,3.5,-,N/A,,Clear,90,2013-11-20 22:53:00
5:53 PM,48.0,32.0,54,30.19,10.0,Calm,Calm,-,N/A,,Clear,0,2013-11-20 23:53:00
6:53 PM,44.1,32.0,63,30.19,10.0,SE,4.6,-,N/A,,Clear,130,2013-11-21 00:53:00
7:53 PM,48.9,30.9,50,30.20,10.0,SE,6.9,-,N/A,,Clear,140,2013-11-21 01:53:00
8:53 PM,46.9,30.0,52,30.21,10.0,SE,4.6,-,N/A,,Clear,140,2013-11-21 02:53:00
9:53 PM,48.0,28.9,48,30.23,10.0,Calm,Calm,-,N/A,,Clear,0,2013-11-21 03:53:00
10:53 PM,45.0,30.0,56,30.23,10.0,Calm,Calm,-,N/A,,Clear,0,2013-11-21 04:53:00
11:53 PM,41.0,32.0,70,30.24,10.0,Calm,Calm,-,N/A,,Clear,0,2013-11-21 05:53:00